Time,TemperatureF,DewpointF,PressureIn,WindDirection,WindDirectionDegrees,WindSpeedMPH,WindSpeedGustMPH,Humidity,HourlyPrecipIn,Conditions,Clouds,dailyrainin,SoftwareType,DateUTC
2013-06-18 00:02:00,46.6,6.5,30.27,SW,226,17.4,17.4,19,-99.99,,---,-99.99,VWS V14.01,2013-06-18 07:02:00,
2013-06-18 00:07:00,46.4,6.4,30.27,SW,226,17.4,17.4,19,-99.99,,---,-99.99,VWS V14.01,2013-06-18 07:07:00,
2013-06-18 00:13:00,46.4,6.4,30.27,SW,226,17.4,17.4,19,-99.99,,---,-99.99,VWS V14.01,2013-06-18 07:13:00,
2013-06-18 00:18:00,46.4,6.4,30.27,SW,226,17.4,17.4,19,-99.99,,---,-99.99,VWS V14.01,2013-06-18 07:18:00,
2013-06-18 00:23:00,46.6,6.5,30.27,SW,226,17.4,17.4,19,-99.99,,---,-99.99,VWS V14.01,2013-06-18 07:23:00,
2013-06-18 00:28:00,46.6,6.5,30.27,SW,226,17.4,17.4,19,-99.99,,---,-99.99,VWS V14.01,2013-06-18 07:28:00,
2013-06-18 00:33:00,46.6,6.5,30.27,SW,226,17.4,17.4,19,-99.99,,---,-99.99,VWS V14.01,2013-06-18 07:33:00,
2013-06-18 00:38:00,46.4,6.4,30.27,SW,226,17.4,17.4,19,-99.99,,---,-99.99,VWS V14.01,2013-06-18 07:38:00,
2013-06-18 00:43:00,46.2,7.4,30.27,SW,226,17.4,17.4,20,-99.99,,---,-99.99,VWS V14.01,2013-06-18 07:43:00,
2013-06-18 00:48:00,46.2,7.4,30.27,SW,226,17.4,17.4,20,-99.99,,---,-99.99,VWS V14.01,2013-06-18 07:48:00,
2013-06-18 00:53:00,46.2,7.4,30.27,SW,226,17.4,17.4,20,-99.99,,---,-99.99,VWS V14.01,2013-06-18 07:53:00,
2013-06-18 00:58:00,45.9,7.1,30.27,SW,226,17.4,17.4,20,-99.99,,---,-99.99,VWS V14.01,2013-06-18 07:58:00,
2013-06-18 01:03:00,45.9,7.1,30.27,SW,226,17.4,17.4,20,-99.99,,---,-99.99,VWS V14.01,2013-06-18 08:03:00,
2013-06-18 01:08:00,45.9,7.1,30.27,SW,226,17.4,17.4,20,-99.99,,---,-99.99,VWS V14.01,2013-06-18 08:08:00,
2013-06-18 01:13:00,45.9,7.1,30.27,SW,226,17.4,17.4,20,-99.99,,---,-99.99,VWS V14.01,2013-06-18 08:13:00,
2013-06-18 01:18:00,45.9,7.1,30.27,SW,226,17.4,17.4,20,-99.99,,---,-99.99,VWS V14.01,2013-06-18 08:18:00,
2013-06-18 01:23:00,45.9,7.1,30.27,SW,226,17.4,17.4,20,-99.99,,---,-99.99,VWS V14.01,2013-06-18 08:23:00,
2013-06-18 01:28:00,45.9,7.1,30.27,SW,226,17.4,17.4,20,-99.99,,---,-99.99,VWS V14.01,2013-06-18 08:28:00,
2013-06-18 01:33:00,45.7,6.9,30.27,SW,226,17.4,17.4,20,-99.99,,---,-99.99,VWS V14.01,2013-06-18 08:33:00,
2013-06-18 01:38:00,45.7,6.9,30.27,SW,226,17.4,17.4,20,-99.99,,---,-99.99,VWS V14.01,2013-06-18 08:38:00,
2013-06-18 01:43:00,45.9,7.1,30.27,SW,226,17.4,17.4,20,-99.99,,---,-99.99,VWS V14.01,2013-06-18 08:43:00,
2013-06-18 01:48:00,45.7,6.9,30.27,SW,226,17.4,17.4,20,-99.99,,---,-99.99,VWS V14.01,2013-06-18 08:48:00,
2013-06-18 01:53:00,45.5,6.8,30.27,SW,226,17.4,17.4,20,-99.99,,---,-99.99,VWS V14.01,2013-06-18 08:53:00,
2013-06-18 01:58:00,45.5,6.8,30.27,SW,226,17.4,17.4,20,-99.99,,---,-99.99,VWS V14.01,2013-06-18 08:58:00,
2013-06-18 02:03:00,45.5,6.8,30.27,SW,226,17.4,17.4,20,-99.99,,---,-99.99,VWS V14.01,2013-06-18 09:03:00,
2013-06-18 02:08:00,45.7,6.9,30.27,SW,226,17.4,17.4,20,-99.99,,---,-99.99,VWS V14.01,2013-06-18 09:08:00,
2013-06-18 02:13:00,45.5,6.8,30.27,SW,226,17.4,17.4,20,-99.99,,---,-99.99,VWS V14.01,2013-06-18 09:13:00,
2013-06-18 02:18:00,45.5,6.8,30.27,SW,226,17.4,17.4,20,-99.99,,---,-99.99,VWS V14.01,2013-06-18 09:18:00,
2013-06-18 02:23:00,45.5,6.8,30.27,SW,226,17.4,17.4,20,-99.99,,---,-99.99,VWS V14.01,2013-06-18 09:23:00,
2013-06-18 02:28:00,45.7,6.9,30.27,SW,226,17.4,17.4,20,-99.99,,---,-99.99,VWS V14.01,2013-06-18 09:28:00,
2013-06-18 02:33:00,45.9,7.1,30.27,SW,226,17.4,17.4,20,-99.99,,---,-99.99,VWS V14.01,2013-06-18 09:33:00,
2013-06-18 02:38:00,45.9,7.1,30.27,SW,226,17.4,17.4,20,-99.99,,---,-99.99,VWS V14.01,2013-06-18 09:38:00,
2013-06-18 02:43:00,45.9,7.1,30.27,SW,226,17.4,17.4,20,-99.99,,---,-99.99,VWS V14.01,2013-06-18 09:43:00,
2013-06-18 02:48:00,45.7,6.9,30.27,SW,226,17.4,17.4,20,-99.99,,---,-99.99,VWS V14.01,2013-06-18 09:48:00,
2013-06-18 02:53:00,45.9,7.1,30.27,SW,226,17.4,17.4,20,-99.99,,---,-99.99,VWS V14.01,2013-06-18 09:53:00,
2013-06-18 02:58:00,45.9,7.1,30.27,SW,226,17.4,17.4,20,-99.99,,---,-99.99,VWS V14.01,2013-06-18 09:58:00,
2013-06-18 03:04:00,46.0,7.2,30.27,SW,226,17.4,17.4,20,-99.99,,---,-99.99,VWS V14.01,2013-06-18 10:04:00,
2013-06-18 03:09:00,46.2,7.4,30.27,SW,226,17.4,17.4,20,-99.99,,---,-99.99,VWS V14.01,2013-06-18 10:09:00,
2013-06-18 03:14:00,46.2,7.4,30.27,SW,226,17.4,17.4,20,-99.99,,---,-99.99,VWS V14.01,2013-06-18 10:14:00,
2013-06-18 03:19:00,46.2,7.4,30.27,SW,226,17.4,17.4,20,-99.99,,---,-99.99,VWS V14.01,2013-06-18 10:19:00,
2013-06-18 03:24:00,45.9,7.1,30.27,SW,226,17.4,17.4,20,-99.99,,---,-99.99,VWS V14.01,2013-06-18 10:24:00,
2013-06-18 03:29:00,46.0,7.2,30.27,SW,226,17.4,17.4,20,-99.99,,---,-99.99,VWS V14.01,2013-06-18 10:29:00,
2013-06-18 03:34:00,46.0,7.2,30.27,SW,226,17.4,17.4,20,-99.99,,---,-99.99,VWS V14.01,2013-06-18 10:34:00,
2013-06-18 03:39:00,46.0,7.2,30.27,SW,226,17.4,17.4,20,-99.99,,---,-99.99,VWS V14.01,2013-06-18 10:39:00,
2013-06-18 03:44:00,46.0,7.2,30.27,SW,226,17.4,17.4,20,-99.99,,---,-99.99,VWS V14.01,2013-06-18 10:44:00,
2013-06-18 03:49:00,46.0,7.2,30.27,SW,226,17.4,17.4,20,-99.99,,---,-99.99,VWS V14.01,2013-06-18 10:49:00,
2013-06-18 03:54:00,46.0,7.2,30.27,SW,226,17.4,17.4,20,-99.99,,---,-99.99,VWS V14.01,2013-06-18 10:54:00,
2013-06-18 03:59:00,46.0,7.2,30.27,SW,226,17.4,17.4,20,-99.99,,---,-99.99,VWS V14.01,2013-06-18 10:59:00,
2013-06-18 04:04:00,46.0,7.2,30.27,SW,226,17.4,17.4,20,-99.99,,---,-99.99,VWS V14.01,2013-06-18 11:04:00,
2013-06-18 04:09:00,46.0,7.2,30.27,SW,226,17.4,17.4,20,-99.99,,---,-99.99,VWS V14.01,2013-06-18 11:09:00,
2013-06-18 04:14:00,46.0,7.2,30.27,SW,226,17.4,17.4,20,-99.99,,---,-99.99,VWS V14.01,2013-06-18 11:14:00,
2013-06-18 04:19:00,46.0,7.2,30.27,SW,226,17.4,17.4,20,-99.99,,---,-99.99,VWS V14.01,2013-06-18 11:19:00,
2013-06-18 04:24:00,46.0,7.2,30.27,SW,226,17.4,17.4,20,-99.99,,---,-99.99,VWS V14.01,2013-06-18 11:24:00,
2013-06-18 04:29:00,46.0,7.2,30.27,SW,226,17.4,17.4,20,-99.99,,---,-99.99,VWS V14.01,2013-06-18 11:29:00,
2013-06-18 04:34:00,46.0,7.2,30.27,SW,226,17.4,17.4,20,-99.99,,---,-99.99,VWS V14.01,2013-06-18 11:34:00,
2013-06-18 04:39:00,46.0,7.2,30.27,SW,226,17.4,17.4,20,-99.99,,---,-99.99,VWS V14.01,2013-06-18 11:39:00,
2013-06-18 04:44:00,46.0,7.2,30.27,SW,226,17.4,17.4,20,-99.99,,---,-99.99,VWS V14.01,2013-06-18 11:44:00,
2013-06-18 04:49:00,46.0,7.2,30.27,SW,226,17.4,17.4,20,-99.99,,---,-99.99,VWS V14.01,2013-06-18 11:49:00,
2013-06-18 04:54:00,46.0,7.2,30.27,SW,226,17.4,17.4,20,-99.99,,---,-99.99,VWS V14.01,2013-06-18 11:54:00,
2013-06-18 04:59:00,46.0,7.2,30.27,SW,226,17.4,17.4,20,-99.99,,---,-99.99,VWS V14.01,2013-06-18 11:59:00,
2013-06-18 05:04:00,46.0,7.2,30.24,SW,226,17.4,17.4,20,-99.99,,---,-99.99,VWS V14.01,2013-06-18 12:04:00,
2013-06-18 05:09:00,46.0,7.2,30.24,SW,226,17.4,17.4,20,-99.99,,---,-99.99,VWS V14.01,2013-06-18 12:09:00,
2013-06-18 05:14:00,46.0,7.2,30.24,SW,226,17.4,17.4,20,-99.99,,---,-99.99,VWS V14.01,2013-06-18 12:14:00,
2013-06-18 05:19:00,46.0,7.2,30.24,SW,226,17.4,17.4,20,-99.99,,---,-99.99,VWS V14.01,2013-06-18 12:19:00,
2013-06-18 05:24:00,46.0,7.2,30.24,SW,226,17.4,17.4,20,-99.99,,---,-99.99,VWS V14.01,2013-06-18 12:24:00,
2013-06-18 05:29:00,46.0,7.2,30.24,SW,226,17.4,17.4,20,-99.99,,---,-99.99,VWS V14.01,2013-06-18 12:29:00,
2013-06-18 05:34:00,46.0,7.2,30.24,SW,226,17.4,17.4,20,-99.99,,---,-99.99,VWS V14.01,2013-06-18 12:34:00,
2013-06-18 05:39:00,46.0,7.2,30.24,SW,226,17.4,17.4,20,-99.99,,---,-99.99,VWS V14.01,2013-06-18 12:39:00,
2013-06-18 05:44:00,46.0,7.2,30.24,SW,226,17.4,17.4,20,-99.99,,---,-99.99,VWS V14.01,2013-06-18 12:44:00,
2013-06-18 05:49:00,46.0,7.2,30.24,SW,226,17.4,17.4,20,-99.99,,---,-99.99,VWS V14.01,2013-06-18 12:49:00,
2013-06-18 05:54:00,46.0,7.2,30.24,SW,226,17.4,17.4,20,-99.99,,---,-99.99,VWS V14.01,2013-06-18 12:54:00,
2013-06-18 05:59:00,46.4,6.4,30.24,SW,226,17.4,17.4,19,-99.99,,---,-99.99,VWS V14.01,2013-06-18 12:59:00,
2013-06-18 06:04:00,46.4,6.4,30.24,SW,226,17.4,17.4,19,-99.99,,---,-99.99,VWS V14.01,2013-06-18 13:04:00,
2013-06-18 06:10:00,46.9,6.8,30.24,SW,226,17.4,17.4,19,-99.99,,---,-99.99,VWS V14.01,2013-06-18 13:10:00,
2013-06-18 06:15:00,46.9,6.8,30.24,SW,226,17.4,17.4,19,-99.99,,---,-99.99,VWS V14.01,2013-06-18 13:15:00,
2013-06-18 06:20:00,46.9,6.8,30.24,SW,226,17.4,17.4,19,-99.99,,---,-99.99,VWS V14.01,2013-06-18 13:20:00,
2013-06-18 06:25:00,47.1,7.0,30.24,SW,226,17.4,17.4,19,-99.99,,---,-99.99,VWS V14.01,2013-06-18 13:25:00,
2013-06-18 06:30:00,47.5,7.3,30.24,SW,226,17.4,17.4,19,-99.99,,---,-99.99,VWS V14.01,2013-06-18 13:30:00,
2013-06-18 06:35:00,48.0,7.7,30.24,SW,226,17.4,17.4,19,-99.99,,---,-99.99,VWS V14.01,2013-06-18 13:35:00,
2013-06-18 06:40:00,48.2,7.9,30.24,SW,226,17.4,17.4,19,-99.99,,---,-99.99,VWS V14.01,2013-06-18 13:40:00,
2013-06-18 06:45:00,48.6,8.2,30.24,SW,226,17.4,17.4,19,-99.99,,---,-99.99,VWS V14.01,2013-06-18 13:45:00,
2013-06-18 06:50:00,48.7,8.3,30.24,SW,226,17.4,17.4,19,-99.99,,---,-99.99,VWS V14.01,2013-06-18 13:50:00,
2013-06-18 06:55:00,48.7,8.3,30.24,SW,226,17.4,17.4,19,-99.99,,---,-99.99,VWS V14.01,2013-06-18 13:55:00,
2013-06-18 07:00:00,49.1,8.6,30.24,SW,226,17.4,17.4,19,-99.99,,---,-99.99,VWS V14.01,2013-06-18 14:00:00,
2013-06-18 07:05:00,48.9,8.5,30.24,SW,226,17.4,17.4,19,-99.99,,---,-99.99,VWS V14.01,2013-06-18 14:05:00,
2013-06-18 07:10:00,49.5,8.9,30.24,SW,226,17.4,17.4,19,-99.99,,---,-99.99,VWS V14.01,2013-06-18 14:10:00,
2013-06-18 07:15:00,49.5,8.9,30.24,SW,226,17.4,17.4,19,-99.99,,---,-99.99,VWS V14.01,2013-06-18 14:15:00,
2013-06-18 07:20:00,50.2,9.5,30.21,SW,226,17.4,17.4,19,-99.99,,---,-99.99,VWS V14.01,2013-06-18 14:20:00,
2013-06-18 07:25:00,50.5,9.8,30.21,West,260,19.7,19.7,19,-99.99,,---,-99.99,VWS V14.01,2013-06-18 14:25:00,
2013-06-18 07:30:00,50.5,9.8,30.21,SW,236,22.8,22.8,19,-99.99,,---,-99.99,VWS V14.01,2013-06-18 14:30:00,
2013-06-18 07:35:00,51.1,10.3,30.21,SW,236,22.8,22.8,19,-99.99,,---,-99.99,VWS V14.01,2013-06-18 14:35:00,
2013-06-18 07:40:00,51.1,10.3,30.24,WSW,246,23.3,23.3,19,-99.99,,---,-99.99,VWS V14.01,2013-06-18 14:40:00,
2013-06-18 07:45:00,51.1,10.3,30.24,WSW,237,21.9,21.9,19,-99.99,,---,-99.99,VWS V14.01,2013-06-18 14:45:00,
2013-06-18 07:50:00,51.1,10.3,30.24,WSW,248,20.6,23.7,19,-99.99,,---,-99.99,VWS V14.01,2013-06-18 14:50:00,
2013-06-18 07:55:00,51.1,10.3,30.24,WSW,243,21.0,21.0,19,-99.99,,---,-99.99,VWS V14.01,2013-06-18 14:55:00,
2013-06-18 08:00:00,51.6,10.7,30.24,WSW,251,23.3,23.3,19,-99.99,,---,-99.99,VWS V14.01,2013-06-18 15:00:00,
2013-06-18 08:05:00,51.6,10.7,30.24,WSW,251,19.7,19.7,19,-99.99,,---,-99.99,VWS V14.01,2013-06-18 15:05:00,
2013-06-18 08:10:00,51.6,10.7,30.21,WSW,241,20.6,20.6,19,-99.99,,---,-99.99,VWS V14.01,2013-06-18 15:10:00,
2013-06-18 08:15:00,51.6,10.7,30.21,WSW,240,19.7,19.7,19,-99.99,,---,-99.99,VWS V14.01,2013-06-18 15:15:00,
2013-06-18 08:20:00,51.6,10.7,30.21,WSW,240,19.7,19.7,19,-99.99,,---,-99.99,VWS V14.01,2013-06-18 15:20:00,
2013-06-18 08:25:00,51.6,10.7,30.21,WSW,238,20.1,20.1,19,-99.99,,---,-99.99,VWS V14.01,2013-06-18 15:25:00,
2013-06-18 08:30:00,51.6,10.7,30.21,SW,235,20.1,20.1,19,-99.99,,---,-99.99,VWS V14.01,2013-06-18 15:30:00,
2013-06-18 08:35:00,51.6,10.7,30.21,WSW,243,20.6,20.6,19,-99.99,,---,-99.99,VWS V14.01,2013-06-18 15:35:00,
2013-06-18 08:40:00,51.6,10.7,30.21,WSW,243,20.6,20.6,19,-99.99,,---,-99.99,VWS V14.01,2013-06-18 15:40:00,
2013-06-18 08:45:00,51.6,10.7,30.21,WSW,243,20.6,20.6,19,-99.99,,---,-99.99,VWS V14.01,2013-06-18 15:45:00,
2013-06-18 08:50:00,51.6,10.7,30.21,WSW,245,17.0,17.0,19,-99.99,,---,-99.99,VWS V14.01,2013-06-18 15:50:00,
2013-06-18 08:56:00,51.6,10.7,30.21,WSW,253,20.6,20.6,19,-99.99,,---,-99.99,VWS V14.01,2013-06-18 15:56:00,
2013-06-18 09:01:00,51.6,10.7,30.21,WSW,253,20.6,20.6,19,-99.99,,---,-99.99,VWS V14.01,2013-06-18 16:01:00,
2013-06-18 09:06:00,51.6,10.7,30.21,West,260,17.9,17.9,19,-99.99,,---,-99.99,VWS V14.01,2013-06-18 16:06:00,
2013-06-18 09:11:00,51.6,10.7,30.21,WSW,242,15.0,15.0,19,-99.99,,---,-99.99,VWS V14.01,2013-06-18 16:11:00,
2013-06-18 09:16:00,53.6,11.1,30.21,WSW,249,23.3,23.3,18,-99.99,,---,-99.99,VWS V14.01,2013-06-18 16:16:00,
2013-06-18 09:21:00,53.6,11.1,30.21,WSW,249,23.3,23.3,18,-99.99,,---,-99.99,VWS V14.01,2013-06-18 16:21:00,
2013-06-18 09:26:00,53.6,11.1,30.21,WSW,243,16.3,16.3,18,-99.99,,---,-99.99,VWS V14.01,2013-06-18 16:26:00,
2013-06-18 09:31:00,53.6,11.1,30.21,WSW,252,16.8,16.8,18,-99.99,,---,-99.99,VWS V14.01,2013-06-18 16:31:00,
2013-06-18 09:36:00,53.6,11.1,30.21,WSW,258,17.4,22.4,18,-99.99,,---,-99.99,VWS V14.01,2013-06-18 16:36:00,
2013-06-18 09:41:00,53.6,11.1,30.21,WSW,255,15.4,17.0,18,-99.99,,---,-99.99,VWS V14.01,2013-06-18 16:41:00,
2013-06-18 09:46:00,53.6,11.1,30.21,WSW,247,15.9,15.9,18,-99.99,,---,-99.99,VWS V14.01,2013-06-18 16:46:00,
2013-06-18 09:51:00,55.4,11.3,30.21,WSW,252,16.3,16.3,17,-99.99,,---,-99.99,VWS V14.01,2013-06-18 16:51:00,
2013-06-18 09:56:00,55.4,11.3,30.21,WSW,252,16.3,16.3,17,-99.99,,---,-99.99,VWS V14.01,2013-06-18 16:56:00,
2013-06-18 10:01:00,55.4,11.3,30.21,WSW,239,17.4,17.4,17,-99.99,,---,-99.99,VWS V14.01,2013-06-18 17:01:00,
2013-06-18 10:06:00,55.4,11.3,30.21,SW,233,12.8,12.8,17,-99.99,,---,-99.99,VWS V14.01,2013-06-18 17:06:00,
2013-06-18 10:11:00,55.4,11.3,30.21,WSW,243,14.5,14.5,17,-99.99,,---,-99.99,VWS V14.01,2013-06-18 17:11:00,
2013-06-18 10:16:00,55.4,11.3,30.21,WSW,245,13.2,13.2,17,-99.99,,---,-99.99,VWS V14.01,2013-06-18 17:16:00,
2013-06-18 10:21:00,55.4,11.3,30.21,WSW,244,15.0,15.0,17,-99.99,,---,-99.99,VWS V14.01,2013-06-18 17:21:00,
2013-06-18 10:26:00,55.4,11.3,30.21,WSW,244,19.7,19.7,17,-99.99,,---,-99.99,VWS V14.01,2013-06-18 17:26:00,
2013-06-18 10:31:00,56.5,12.2,30.21,WSW,251,15.4,19.7,17,-99.99,,---,-99.99,VWS V14.01,2013-06-18 17:31:00,
2013-06-18 10:35:00,56.5,12.2,30.21,WSW,251,15.4,15.4,17,-99.99,,---,-99.99,VWS V14.01,2013-06-18 17:35:00,
2013-06-18 10:41:00,56.5,12.2,30.21,West,265,10.5,10.5,17,-99.99,,---,-99.99,VWS V14.01,2013-06-18 17:41:00,
2013-06-18 10:46:00,56.5,12.2,30.21,WSW,238,13.2,13.2,17,-99.99,,---,-99.99,VWS V14.01,2013-06-18 17:46:00,
2013-06-18 10:51:00,56.5,12.2,30.21,WSW,237,12.3,12.3,17,-99.99,,---,-99.99,VWS V14.01,2013-06-18 17:51:00,
2013-06-18 10:56:00,56.5,12.2,30.21,WSW,246,10.1,10.1,17,-99.99,,---,-99.99,VWS V14.01,2013-06-18 17:56:00,
2013-06-18 11:01:00,57.7,13.2,30.21,WSW,251,0.0,0.0,17,-99.99,,---,-99.99,VWS V14.01,2013-06-18 18:01:00,
2013-06-18 11:06:00,58.1,13.5,30.21,SW,230,13.2,13.2,17,-99.99,,---,-99.99,VWS V14.01,2013-06-18 18:06:00,
2013-06-18 11:11:00,58.1,13.5,30.21,SW,234,11.4,11.4,17,-99.99,,---,-99.99,VWS V14.01,2013-06-18 18:11:00,
2013-06-18 11:16:00,58.1,13.5,30.21,SW,224,11.9,11.9,17,-99.99,,---,-99.99,VWS V14.01,2013-06-18 18:16:00,
2013-06-18 11:21:00,58.1,13.5,30.21,WSW,250,10.1,11.9,17,-99.99,,---,-99.99,VWS V14.01,2013-06-18 18:21:00,
2013-06-18 11:26:00,58.1,13.5,30.21,WSW,238,8.7,8.7,17,-99.99,,---,-99.99,VWS V14.01,2013-06-18 18:26:00,
2013-06-18 11:31:00,58.1,13.5,30.21,WSW,239,15.0,15.0,17,-99.99,,---,-99.99,VWS V14.01,2013-06-18 18:31:00,
2013-06-18 11:36:00,58.1,13.5,30.21,SW,216,10.5,10.5,17,-99.99,,---,-99.99,VWS V14.01,2013-06-18 18:36:00,
2013-06-18 11:41:00,59.7,14.9,30.21,SW,225,8.1,8.1,17,-99.99,,---,-99.99,VWS V14.01,2013-06-18 18:41:00,
2013-06-18 11:46:00,59.7,14.9,30.21,SW,229,12.3,12.3,17,-99.99,,---,-99.99,VWS V14.01,2013-06-18 18:46:00,
2013-06-18 11:51:00,59.7,14.9,30.21,SW,228,10.1,10.1,17,-99.99,,---,-99.99,VWS V14.01,2013-06-18 18:51:00,
2013-06-18 11:56:00,59.7,14.9,30.21,SW,231,15.4,15.4,17,-99.99,,---,-99.99,VWS V14.01,2013-06-18 18:56:00,
2013-06-18 12:01:00,59.7,14.9,30.21,SSW,211,10.1,10.1,17,-99.99,,---,-99.99,VWS V14.01,2013-06-18 19:01:00,
2013-06-18 12:06:00,59.7,14.9,30.21,SW,214,10.1,12.8,17,-99.99,,---,-99.99,VWS V14.01,2013-06-18 19:06:00,
2013-06-18 12:11:00,59.7,14.9,30.21,WSW,240,10.1,10.1,17,-99.99,,---,-99.99,VWS V14.01,2013-06-18 19:11:00,
2013-06-18 12:16:00,59.7,14.9,30.21,WSW,251,14.5,14.5,17,-99.99,,---,-99.99,VWS V14.01,2013-06-18 19:16:00,
2013-06-18 12:21:00,60.1,15.1,30.21,WSW,238,10.1,10.1,17,-99.99,,---,-99.99,VWS V14.01,2013-06-18 19:21:00,
2013-06-18 12:26:00,60.1,15.1,30.18,SW,231,13.2,13.2,17,-99.99,,---,-99.99,VWS V14.01,2013-06-18 19:26:00,
2013-06-18 12:31:00,60.1,15.1,30.18,WSW,244,8.1,13.2,17,-99.99,,---,-99.99,VWS V14.01,2013-06-18 19:31:00,
2013-06-18 12:36:00,60.1,15.1,30.18,SW,235,10.1,10.1,17,-99.99,,---,-99.99,VWS V14.01,2013-06-18 19:36:00,
2013-06-18 12:41:00,60.1,15.1,30.18,SW,229,12.3,12.3,17,-99.99,,---,-99.99,VWS V14.01,2013-06-18 19:41:00,
2013-06-18 12:46:00,60.1,15.1,30.18,SW,229,12.3,12.3,17,-99.99,,---,-99.99,VWS V14.01,2013-06-18 19:46:00,
2013-06-18 12:51:00,60.1,15.1,30.18,SW,229,12.3,12.3,17,-99.99,,---,-99.99,VWS V14.01,2013-06-18 19:51:00,
2013-06-18 12:56:00,61.0,14.5,30.18,SW,235,8.1,8.1,16,-99.99,,---,-99.99,VWS V14.01,2013-06-18 19:56:00,
2013-06-18 13:01:00,61.0,14.5,30.18,SSW,209,8.1,8.1,16,-99.99,,---,-99.99,VWS V14.01,2013-06-18 20:01:00,
2013-06-18 13:06:00,60.4,15.4,30.18,SW,229,8.1,12.3,17,-99.99,,---,-99.99,VWS V14.01,2013-06-18 20:06:00,
2013-06-18 13:11:00,60.4,15.4,30.18,SW,229,8.1,8.1,17,-99.99,,---,-99.99,VWS V14.01,2013-06-18 20:11:00,
2013-06-18 13:16:00,60.4,15.4,30.18,SSW,209,11.4,11.4,17,-99.99,,---,-99.99,VWS V14.01,2013-06-18 20:16:00,
2013-06-18 13:21:00,60.4,15.4,30.18,SSW,207,7.6,7.6,17,-99.99,,---,-99.99,VWS V14.01,2013-06-18 20:21:00,
2013-06-18 13:26:00,60.4,15.4,30.18,SW,221,11.0,11.0,17,-99.99,,---,-99.99,VWS V14.01,2013-06-18 20:26:00,
2013-06-18 13:31:00,61.5,14.9,30.18,WSW,241,7.6,7.6,16,-99.99,,---,-99.99,VWS V14.01,2013-06-18 20:31:00,
2013-06-18 13:36:00,61.5,14.9,30.18,SSW,213,10.5,10.5,16,-99.99,,---,-99.99,VWS V14.01,2013-06-18 20:36:00,
2013-06-18 13:41:00,61.9,15.2,30.18,SSW,197,5.4,5.4,16,-99.99,,---,-99.99,VWS V14.01,2013-06-18 20:41:00,
2013-06-18 13:46:00,61.9,15.2,30.18,SSW,197,5.4,5.4,16,-99.99,,---,-99.99,VWS V14.01,2013-06-18 20:46:00,
2013-06-18 13:51:00,61.9,15.2,30.18,SSW,207,11.0,11.0,16,-99.99,,---,-99.99,VWS V14.01,2013-06-18 20:51:00,
2013-06-18 13:56:00,61.9,15.2,30.18,SSW,200,10.1,10.1,16,-99.99,,---,-99.99,VWS V14.01,2013-06-18 20:56:00,
2013-06-18 14:01:00,61.9,15.2,30.18,SW,217,13.2,13.2,16,-99.99,,---,-99.99,VWS V14.01,2013-06-18 21:01:00,
2013-06-18 14:06:00,61.9,15.2,30.18,SSW,202,12.8,13.2,16,-99.99,,---,-99.99,VWS V14.01,2013-06-18 21:06:00,
2013-06-18 14:11:00,61.9,15.2,30.18,SSW,202,12.8,12.8,16,-99.99,,---,-99.99,VWS V14.01,2013-06-18 21:11:00,
2013-06-18 14:16:00,61.2,14.6,30.18,SSW,199,8.3,8.3,16,-99.99,,---,-99.99,VWS V14.01,2013-06-18 21:16:00,
2013-06-18 14:21:00,61.2,14.6,30.18,SSW,199,8.3,8.3,16,-99.99,,---,-99.99,VWS V14.01,2013-06-18 21:21:00,
2013-06-18 14:26:00,61.2,14.6,30.18,SSW,193,0.0,0.0,16,-99.99,,---,-99.99,VWS V14.01,2013-06-18 21:26:00,
2013-06-18 14:31:00,61.2,14.6,30.18,SSW,197,12.3,12.3,16,-99.99,,---,-99.99,VWS V14.01,2013-06-18 21:31:00,
2013-06-18 14:36:00,61.2,14.6,30.18,SSW,200,11.0,11.0,16,-99.99,,---,-99.99,VWS V14.01,2013-06-18 21:36:00,
2013-06-18 14:41:00,61.2,14.6,30.18,SW,216,12.8,12.8,16,-99.99,,---,-99.99,VWS V14.01,2013-06-18 21:41:00,
2013-06-18 14:46:00,61.3,14.8,30.18,SSW,213,8.7,8.7,16,-99.99,,---,-99.99,VWS V14.01,2013-06-18 21:46:00,
2013-06-18 14:51:00,61.5,14.9,30.18,South,191,0.0,0.0,16,-99.99,,---,-99.99,VWS V14.01,2013-06-18 21:51:00,
2013-06-18 14:56:00,61.7,15.1,30.18,South,191,0.0,0.0,16,-99.99,,---,-99.99,VWS V14.01,2013-06-18 21:56:00,
2013-06-18 15:01:00,62.1,15.4,30.18,SSW,196,0.0,0.0,16,-99.99,,---,-99.99,VWS V14.01,2013-06-18 22:01:00,
2013-06-18 15:06:00,62.1,15.4,30.18,SW,226,0.0,0.0,16,-99.99,,---,-99.99,VWS V14.01,2013-06-18 22:06:00,
2013-06-18 15:11:00,62.1,15.4,30.18,South,190,0.0,0.0,16,-99.99,,---,-99.99,VWS V14.01,2013-06-18 22:11:00,
2013-06-18 15:16:00,62.1,15.4,30.18,South,176,0.0,0.0,16,-99.99,,---,-99.99,VWS V14.01,2013-06-18 22:16:00,
2013-06-18 15:21:00,62.1,15.4,30.18,South,183,0.0,0.0,16,-99.99,,---,-99.99,VWS V14.01,2013-06-18 22:21:00,
2013-06-18 15:26:00,61.5,14.9,30.18,SSW,202,0.0,0.0,16,-99.99,,---,-99.99,VWS V14.01,2013-06-18 22:26:00,
2013-06-18 15:31:00,61.2,14.6,30.18,SSW,202,0.0,0.0,16,-99.99,,---,-99.99,VWS V14.01,2013-06-18 22:31:00,
2013-06-18 15:36:00,61.0,14.5,30.18,South,190,12.8,12.8,16,-99.99,,---,-99.99,VWS V14.01,2013-06-18 22:36:00,
2013-06-18 15:41:00,61.0,14.5,30.18,SSW,193,13.2,13.2,16,-99.99,,---,-99.99,VWS V14.01,2013-06-18 22:41:00,
2013-06-18 15:46:00,61.0,14.5,30.18,SSW,203,12.8,13.2,16,-99.99,,---,-99.99,VWS V14.01,2013-06-18 22:46:00,
2013-06-18 15:51:00,61.0,14.5,30.18,South,187,10.1,10.1,16,-99.99,,---,-99.99,VWS V14.01,2013-06-18 22:51:00,
2013-06-18 15:56:00,60.6,15.6,30.18,SSW,199,12.8,12.8,17,-99.99,,---,-99.99,VWS V14.01,2013-06-18 22:56:00,
2013-06-18 16:01:00,60.4,15.4,30.18,SSW,204,12.8,12.8,17,-99.99,,---,-99.99,VWS V14.01,2013-06-18 23:01:00,
2013-06-18 16:06:00,60.4,15.4,30.18,SSW,204,12.8,12.8,17,-99.99,,---,-99.99,VWS V14.01,2013-06-18 23:06:00,
2013-06-18 16:11:00,60.6,15.6,30.18,South,187,13.2,13.2,17,-99.99,,---,-99.99,VWS V14.01,2013-06-18 23:11:00,
2013-06-18 16:16:00,60.6,15.6,30.15,SSW,195,8.3,8.3,17,-99.99,,---,-99.99,VWS V14.01,2013-06-18 23:16:00,
2013-06-18 16:21:00,60.6,15.6,30.15,SSW,202,12.8,12.8,17,-99.99,,---,-99.99,VWS V14.01,2013-06-18 23:21:00,
2013-06-18 16:26:00,60.6,15.6,30.15,SSW,208,8.1,8.1,17,-99.99,,---,-99.99,VWS V14.01,2013-06-18 23:26:00,
2013-06-18 16:31:00,60.6,15.6,30.15,South,188,10.5,10.5,17,-99.99,,---,-99.99,VWS V14.01,2013-06-18 23:31:00,
2013-06-18 16:36:00,59.2,14.4,30.15,South,188,11.4,11.4,17,-99.99,,---,-99.99,VWS V14.01,2013-06-18 23:36:00,
2013-06-18 16:42:00,59.2,14.4,30.15,SSW,196,14.5,14.5,17,-99.99,,---,-99.99,VWS V14.01,2013-06-18 23:42:00,
2013-06-18 16:47:00,58.8,14.1,30.15,South,191,12.8,12.8,17,-99.99,,---,-99.99,VWS V14.01,2013-06-18 23:47:00,
2013-06-18 16:52:00,58.8,14.1,30.15,SSW,212,15.4,15.4,17,-99.99,,---,-99.99,VWS V14.01,2013-06-18 23:52:00,
2013-06-18 16:57:00,57.7,13.2,30.15,South,189,15.9,15.9,17,-99.99,,---,-99.99,VWS V14.01,2013-06-18 23:57:00,
2013-06-18 17:02:00,57.6,13.1,30.15,SSW,195,14.5,14.5,17,-99.99,,---,-99.99,VWS V14.01,2013-06-19 00:02:00,
2013-06-18 17:07:00,57.6,13.1,30.15,South,191,13.2,13.2,17,-99.99,,---,-99.99,VWS V14.01,2013-06-19 00:07:00,
2013-06-18 17:12:00,57.0,12.7,30.15,SSW,202,17.4,17.4,17,-99.99,,---,-99.99,VWS V14.01,2013-06-19 00:12:00,
2013-06-18 17:17:00,56.5,12.2,30.15,SSW,210,15.4,17.4,17,-99.99,,---,-99.99,VWS V14.01,2013-06-19 00:17:00,
2013-06-18 17:22:00,56.8,12.5,30.15,SSW,197,16.3,16.3,17,-99.99,,---,-99.99,VWS V14.01,2013-06-19 00:22:00,
2013-06-18 17:27:00,56.1,11.9,30.15,SSW,201,15.9,15.9,17,-99.99,,---,-99.99,VWS V14.01,2013-06-19 00:27:00,
2013-06-18 17:32:00,56.1,11.9,30.15,SSW,206,15.4,15.9,17,-99.99,,---,-99.99,VWS V14.01,2013-06-19 00:32:00,
2013-06-18 17:37:00,55.9,11.8,30.15,SSW,200,15.0,15.0,17,-99.99,,---,-99.99,VWS V14.01,2013-06-19 00:37:00,
2013-06-18 17:42:00,55.9,11.8,30.15,SSW,201,14.5,18.3,17,-99.99,,---,-99.99,VWS V14.01,2013-06-19 00:42:00,
2013-06-18 17:47:00,55.2,12.5,30.15,SSW,211,13.6,13.6,18,-99.99,,---,-99.99,VWS V14.01,2013-06-19 00:47:00,
2013-06-18 17:52:00,55.2,12.5,30.15,SSW,202,15.4,15.4,18,-99.99,,---,-99.99,VWS V14.01,2013-06-19 00:52:00,
2013-06-18 17:57:00,54.5,11.9,30.15,SSW,202,15.4,15.4,18,-99.99,,---,-99.99,VWS V14.01,2013-06-19 00:57:00,
2013-06-18 18:02:00,53.4,11.0,30.15,SW,227,12.3,12.3,18,-99.99,,---,-99.99,VWS V14.01,2013-06-19 01:02:00,
2013-06-18 18:07:00,53.4,11.0,30.15,SW,224,14.5,14.5,18,-99.99,,---,-99.99,VWS V14.01,2013-06-19 01:07:00,
2013-06-18 18:12:00,53.1,10.7,30.15,SSW,196,16.3,16.3,18,-99.99,,---,-99.99,VWS V14.01,2013-06-19 01:12:00,
2013-06-18 18:17:00,53.1,10.7,30.15,SW,234,15.4,15.4,18,-99.99,,---,-99.99,VWS V14.01,2013-06-19 01:17:00,
2013-06-18 18:22:00,52.3,10.1,30.12,SSW,206,15.4,15.4,18,-99.99,,---,-99.99,VWS V14.01,2013-06-19 01:22:00,
2013-06-18 18:27:00,52.0,9.8,30.12,SSW,193,13.2,13.2,18,-99.99,,---,-99.99,VWS V14.01,2013-06-19 01:27:00,
2013-06-18 18:32:00,52.0,9.8,30.12,SSW,193,13.2,13.2,18,-99.99,,---,-99.99,VWS V14.01,2013-06-19 01:32:00,
2013-06-18 18:37:00,51.3,10.4,30.12,SSW,196,13.6,13.6,19,-99.99,,---,-99.99,VWS V14.01,2013-06-19 01:37:00,
2013-06-18 18:42:00,51.3,10.4,30.15,SSW,200,16.3,16.3,19,-99.99,,---,-99.99,VWS V14.01,2013-06-19 01:42:00,
2013-06-18 18:47:00,50.9,10.1,30.15,SSW,194,10.5,10.5,19,-99.99,,---,-99.99,VWS V14.01,2013-06-19 01:47:00,
2013-06-18 18:52:00,50.9,10.1,30.15,SW,214,10.5,10.5,19,-99.99,,---,-99.99,VWS V14.01,2013-06-19 01:52:00,
2013-06-18 18:57:00,50.4,9.7,30.15,SSW,206,17.9,17.9,19,-99.99,,---,-99.99,VWS V14.01,2013-06-19 01:57:00,
2013-06-18 19:02:00,49.8,9.2,30.15,South,187,10.5,11.9,19,-99.99,,---,-99.99,VWS V14.01,2013-06-19 02:02:00,
2013-06-18 19:07:00,49.8,9.2,30.15,South,187,10.5,10.5,19,-99.99,,---,-99.99,VWS V14.01,2013-06-19 02:07:00,
2013-06-18 19:12:00,49.1,8.6,30.15,SSW,204,17.4,17.4,19,-99.99,,---,-99.99,VWS V14.01,2013-06-19 02:12:00,
2013-06-18 19:17:00,49.1,8.6,30.15,SW,217,15.4,15.4,19,-99.99,,---,-99.99,VWS V14.01,2013-06-19 02:17:00,
2013-06-18 19:22:00,48.9,8.5,30.15,SW,217,15.4,15.4,19,-99.99,,---,-99.99,VWS V14.01,2013-06-19 02:22:00,
2013-06-18 19:27:00,48.9,8.5,30.15,SSW,210,17.4,17.4,19,-99.99,,---,-99.99,VWS V14.01,2013-06-19 02:27:00,
2013-06-18 19:32:00,48.9,8.5,30.15,SSW,211,15.4,15.4,19,-99.99,,---,-99.99,VWS V14.01,2013-06-19 02:32:00,
2013-06-18 19:37:00,47.7,7.4,30.15,SSW,202,18.8,18.8,19,-99.99,,---,-99.99,VWS V14.01,2013-06-19 02:37:00,
2013-06-18 19:42:00,47.5,7.3,30.15,SSW,202,18.8,18.8,19,-99.99,,---,-99.99,VWS V14.01,2013-06-19 02:42:00,
2013-06-18 19:47:00,47.3,7.1,30.15,SSW,199,15.4,15.4,19,-99.99,,---,-99.99,VWS V14.01,2013-06-19 02:47:00,
2013-06-18 19:52:00,47.3,7.1,30.15,SSW,213,16.3,16.3,19,-99.99,,---,-99.99,VWS V14.01,2013-06-19 02:52:00,
2013-06-18 19:57:00,46.8,6.7,30.15,SSW,213,16.3,16.3,19,-99.99,,---,-99.99,VWS V14.01,2013-06-19 02:57:00,
2013-06-18 20:02:00,46.8,6.7,30.15,SW,214,14.5,14.5,19,-99.99,,---,-99.99,VWS V14.01,2013-06-19 03:02:00,
2013-06-18 20:07:00,46.8,6.7,30.15,SSW,207,13.2,13.2,19,-99.99,,---,-99.99,VWS V14.01,2013-06-19 03:07:00,
2013-06-18 20:12:00,45.7,6.9,30.15,SSW,198,16.3,16.3,20,-99.99,,---,-99.99,VWS V14.01,2013-06-19 03:12:00,
2013-06-18 20:17:00,45.5,6.8,30.15,SSW,212,17.4,17.4,20,-99.99,,---,-99.99,VWS V14.01,2013-06-19 03:17:00,
2013-06-18 20:22:00,45.3,6.6,30.12,SSW,201,14.1,14.1,20,-99.99,,---,-99.99,VWS V14.01,2013-06-19 03:22:00,
2013-06-18 20:27:00,45.0,6.3,30.12,South,190,17.9,17.9,20,-99.99,,---,-99.99,VWS V14.01,2013-06-19 03:27:00,
2013-06-18 20:32:00,45.1,6.5,30.12,South,190,17.9,17.9,20,-99.99,,---,-99.99,VWS V14.01,2013-06-19 03:32:00,
2013-06-18 20:37:00,44.1,5.6,30.15,SW,215,17.4,17.4,20,-99.99,,---,-99.99,VWS V14.01,2013-06-19 03:37:00,
2013-06-18 20:42:00,44.1,5.6,30.15,SW,219,16.3,16.3,20,-99.99,,---,-99.99,VWS V14.01,2013-06-19 03:42:00,
2013-06-18 20:47:00,43.9,5.4,30.15,WSW,237,17.4,17.4,20,-99.99,,---,-99.99,VWS V14.01,2013-06-19 03:47:00,
2013-06-18 20:52:00,43.9,5.4,30.15,SW,222,19.2,19.2,20,-99.99,,---,-99.99,VWS V14.01,2013-06-19 03:52:00,
2013-06-18 20:57:00,43.7,5.3,30.15,SW,218,19.7,19.7,20,-99.99,,---,-99.99,VWS V14.01,2013-06-19 03:57:00,
2013-06-18 21:01:00,43.7,5.3,30.15,SW,222,17.0,19.7,20,-99.99,,---,-99.99,VWS V14.01,2013-06-19 04:01:00,
2013-06-18 21:02:00,43.5,5.1,30.15,SW,225,19.7,19.7,20,-99.99,,---,-99.99,VWS V14.01,2013-06-19 04:02:00,
2013-06-18 21:07:00,43.5,5.1,30.15,SW,225,19.7,19.7,20,-99.99,,---,-99.99,VWS V14.01,2013-06-19 04:07:00,
2013-06-18 21:12:00,43.5,8.2,30.15,SSW,211,16.8,16.8,23,-99.99,,---,-99.99,VWS V14.01,2013-06-19 04:12:00,
2013-06-18 21:17:00,43.5,8.2,30.15,SW,226,17.4,17.4,23,-99.99,,---,-99.99,VWS V14.01,2013-06-19 04:17:00,
2013-06-18 21:22:00,43.3,8.0,30.15,SW,226,17.4,17.4,23,-99.99,,---,-99.99,VWS V14.01,2013-06-19 04:22:00,
2013-06-18 21:27:00,43.3,9.9,30.15,SW,218,16.8,17.0,25,-99.99,,---,-99.99,VWS V14.01,2013-06-19 04:27:00,
2013-06-18 21:32:00,43.2,9.7,30.15,SW,225,17.4,17.4,25,-99.99,,---,-99.99,VWS V14.01,2013-06-19 04:32:00,
2013-06-18 21:37:00,43.0,9.6,30.15,SSW,213,17.0,17.0,25,-99.99,,---,-99.99,VWS V14.01,2013-06-19 04:37:00,
2013-06-18 21:42:00,42.8,9.4,30.15,SSW,213,17.0,17.0,25,-99.99,,---,-99.99,VWS V14.01,2013-06-19 04:42:00,
2013-06-18 21:47:00,42.4,7.3,30.15,SSW,211,12.8,12.8,23,-99.99,,---,-99.99,VWS V14.01,2013-06-19 04:47:00,
2013-06-18 21:52:00,42.4,7.3,30.15,SW,224,14.5,14.5,23,-99.99,,---,-99.99,VWS V14.01,2013-06-19 04:52:00,
2013-06-18 21:57:00,42.3,7.1,30.15,SSW,208,15.4,15.4,23,-99.99,,---,-99.99,VWS V14.01,2013-06-19 04:57:00,
2013-06-18 22:02:00,42.3,7.1,30.15,SW,231,15.4,15.4,23,-99.99,,---,-99.99,VWS V14.01,2013-06-19 05:02:00,
2013-06-18 22:07:00,42.3,7.1,30.18,SW,217,17.4,17.4,23,-99.99,,---,-99.99,VWS V14.01,2013-06-19 05:07:00,
2013-06-18 22:12:00,42.1,9.7,30.18,SSW,202,15.4,15.4,26,-99.99,,---,-99.99,VWS V14.01,2013-06-19 05:12:00,
2013-06-18 22:17:00,42.1,11.3,30.18,SSW,202,15.4,15.4,28,-99.99,,---,-99.99,VWS V14.01,2013-06-19 05:17:00,
2013-06-18 22:22:00,42.1,11.3,30.18,SW,219,16.3,16.3,28,-99.99,,---,-99.99,VWS V14.01,2013-06-19 05:22:00,
2013-06-18 22:27:00,42.1,11.3,30.18,SSW,205,15.9,15.9,28,-99.99,,---,-99.99,VWS V14.01,2013-06-19 05:27:00,
2013-06-18 22:32:00,41.9,11.2,30.18,SSW,208,18.8,18.8,28,-99.99,,---,-99.99,VWS V14.01,2013-06-19 05:32:00,
2013-06-18 22:37:00,41.9,11.2,30.18,SW,217,18.8,18.8,28,-99.99,,---,-99.99,VWS V14.01,2013-06-19 05:37:00,
2013-06-18 22:42:00,41.9,11.2,30.18,SSW,202,15.4,15.4,28,-99.99,,---,-99.99,VWS V14.01,2013-06-19 05:42:00,
2013-06-18 22:47:00,41.9,11.2,30.18,SSW,210,17.4,17.4,28,-99.99,,---,-99.99,VWS V14.01,2013-06-19 05:47:00,
2013-06-18 22:52:00,41.9,11.2,30.18,SSW,210,17.4,17.4,28,-99.99,,---,-99.99,VWS V14.01,2013-06-19 05:52:00,
2013-06-18 22:57:00,41.5,10.9,30.18,SSW,213,13.2,13.2,28,-99.99,,---,-99.99,VWS V14.01,2013-06-19 05:57:00,
2013-06-18 23:02:00,41.7,11.0,30.18,SSW,201,23.3,23.3,28,-99.99,,---,-99.99,VWS V14.01,2013-06-19 06:02:00,
2013-06-18 23:07:00,41.4,10.7,30.18,SSW,203,17.9,23.3,28,-99.99,,---,-99.99,VWS V14.01,2013-06-19 06:07:00,
2013-06-18 23:13:00,41.0,11.2,30.18,SSW,212,17.4,17.4,29,-99.99,,---,-99.99,VWS V14.01,2013-06-19 06:13:00,
2013-06-18 23:18:00,41.0,11.2,30.18,SSW,204,17.4,17.4,29,-99.99,,---,-99.99,VWS V14.01,2013-06-19 06:18:00,
2013-06-18 23:23:00,40.6,11.6,30.18,SSW,207,14.5,14.5,30,-99.99,,---,-99.99,VWS V14.01,2013-06-19 06:23:00,
2013-06-18 23:28:00,40.6,11.6,30.18,SSW,212,16.8,16.8,30,-99.99,,---,-99.99,VWS V14.01,2013-06-19 06:28:00,
2013-06-18 23:33:00,40.3,11.3,30.18,SW,218,17.4,17.4,30,-99.99,,---,-99.99,VWS V14.01,2013-06-19 06:33:00,
2013-06-18 23:38:00,40.5,11.5,30.18,SSW,210,17.9,17.9,30,-99.99,,---,-99.99,VWS V14.01,2013-06-19 06:38:00,
2013-06-18 23:43:00,40.5,11.5,30.18,SSW,198,21.0,21.0,30,-99.99,,---,-99.99,VWS V14.01,2013-06-19 06:43:00,
2013-06-18 23:48:00,39.9,11.0,30.18,SSW,202,13.2,13.2,30,-99.99,,---,-99.99,VWS V14.01,2013-06-19 06:48:00,
2013-06-18 23:53:00,39.9,11.0,30.18,SSW,197,17.4,17.4,30,-99.99,,---,-99.99,VWS V14.01,2013-06-19 06:53:00,
2013-06-18 23:58:00,39.4,10.5,30.18,SW,216,18.8,18.8,30,-99.99,,---,-99.99,VWS V14.01,2013-06-19 06:58:00,